TimeMST,TemperatureF,Dew PointF,Humidity,Sea Level PressureIn,VisibilityMPH,Wind Direction,Wind SpeedMPH,Gust SpeedMPH,PrecipitationIn,Events,Conditions,WindDirDegrees,DateUTC
12:53 AM,28.0,16.0,61,30.35,10.0,WSW,15.0,-,N/A,,Clear,250,2013-01-17 07:53:00
1:53 AM,28.0,16.0,61,30.37,10.0,West,15.0,-,N/A,,Clear,260,2013-01-17 08:53:00
2:53 AM,28.0,16.0,61,30.38,10.0,West,17.3,-,N/A,,Clear,260,2013-01-17 09:53:00
3:53 AM,26.1,15.1,63,30.40,10.0,WSW,11.5,-,N/A,,Clear,250,2013-01-17 10:53:00
4:53 AM,26.1,15.1,63,30.41,10.0,WSW,11.5,-,N/A,,Clear,250,2013-01-17 11:53:00
5:53 AM,26.1,15.1,63,30.43,10.0,WSW,11.5,-,N/A,,Clear,240,2013-01-17 12:53:00
6:53 AM,26.1,15.1,63,30.41,10.0,SW,12.7,-,N/A,,Clear,230,2013-01-17 13:53:00
7:53 AM,28.0,15.1,58,30.43,10.0,SW,15.0,-,N/A,,Clear,230,2013-01-17 14:53:00
8:53 AM,30.0,17.1,59,30.43,10.0,SW,12.7,-,N/A,,Clear,220,2013-01-17 15:53:00
9:53 AM,33.1,18.0,54,30.40,10.0,SW,17.3,-,N/A,,Clear,220,2013-01-17 16:53:00
10:53 AM,37.0,19.9,50,30.37,10.0,SSW,15.0,-,N/A,,Clear,210,2013-01-17 17:53:00
11:53 AM,39.0,21.0,49,30.33,10.0,SSW,15.0,-,N/A,,Clear,210,2013-01-17 18:53:00
12:53 PM,39.0,21.9,50,30.28,10.0,SSW,18.4,-,N/A,,Clear,200,2013-01-17 19:53:00
1:53 PM,39.0,23.0,53,30.25,10.0,SSW,18.4,-,N/A,,Clear,210,2013-01-17 20:53:00
2:53 PM,39.9,24.1,53,30.23,10.0,SW,15.0,-,N/A,,Clear,220,2013-01-17 21:53:00
3:53 PM,39.0,23.0,53,30.22,10.0,SW,15.0,-,N/A,,Clear,220,2013-01-17 22:53:00
4:53 PM,37.0,21.9,54,30.22,10.0,SW,13.8,-,N/A,,Clear,220,2013-01-17 23:53:00
5:53 PM,36.0,21.0,55,30.21,10.0,SW,15.0,-,N/A,,Clear,220,2013-01-18 00:53:00
6:53 PM,35.1,19.9,54,30.20,10.0,SW,15.0,-,N/A,,Clear,220,2013-01-18 01:53:00
7:53 PM,33.1,19.0,56,30.19,10.0,SW,13.8,-,N/A,,Clear,220,2013-01-18 02:53:00
8:53 PM,30.9,18.0,59,30.18,10.0,Calm,Calm,-,N/A,,Clear,0,2013-01-18 03:53:00
9:53 PM,32.0,17.1,54,30.14,10.0,WSW,13.8,-,N/A,,Clear,240,2013-01-18 04:53:00
10:53 PM,34.0,16.0,48,30.10,10.0,SW,20.7,-,N/A,,Clear,230,2013-01-18 05:53:00
11:53 PM,34.0,17.1,50,30.08,10.0,SW,18.4,-,N/A,,Clear,230,2013-01-18 06:53:00